{"data":{"norad_id":64325,"intl_designator":"2025-124J","name":"STARLINK-11698 [DTC]","alt_names":[],"object_type":"PAYLOAD","status":"ACTIVE","operator":null,"country":"US","launch_date":"2025-06-10","launch_site_code":"AFETR","launch_vehicle":null,"mission":null,"orbit_class":"UNKNOWN","rcs_meters":null,"size_class":null,"mass_kg":null,"dimensions":null,"purposes":["comms"],"wikipedia_slug":null,"has_3d_model":false,"image_url":null,"decayed_at":null,"tle_current":{"epoch":"2026-09-20T08:47:53.013984Z","epoch_age_seconds":145983,"freshness":"FRESH","line1":"1 64325U 25124J   26263.36658581  .00133281  00000+0  10254-2 0  9996","line2":"2 64325  42.9991 295.6193 0000653 208.4791 151.6041 15.70846089 73451","mean_motion":15.70846089,"eccentricity":6.53e-5,"inclination_deg":42.9991,"raan_deg":295.6193,"arg_perigee_deg":208.4791,"mean_anomaly_deg":151.6041,"bstar":0.0010254,"rev_number":7345,"period_min":91.670343140791,"perigee_km":356.03788778603,"apogee_km":356.91742846038,"semimajor_km":6734.6146581232,"source":"CELESTRAK","updated_at":"2026-09-21T09:00:35.312270Z"}}}